Location: Texas Valley
(42.4862°N, 75.9730°W)
Time: 01:51:32
(UTC+00:00)

Tiangong - Pass Details

Date: 23 April 2024
Orbit: 372 x 375 km, 41.5° (Epoch: 20 May)

Event Time Altitude Azimuth Distance (km) Brightness Sun altitude
Rises 00:56:37 0° 267° (W) 2,261 2.8 -11.3°
Reaches altitude 10° 00:58:43 10° 266° (W) 1,403 1.6 -11.7°
Maximum altitude 01:01:52 75° 182° (S) 397 -2.2 -12.2°
Enters shadow 01:03:46 21° 98° (E) 903 -0.8 -12.5°
